Regional Weather Roundup
Issued by NWS

Home | Current Version | Previous Version | Text Only | Print | Product List | Glossary On
Versions: 1 2 3 4 5 6 7 8 9 10 11 12 13 14 15 16 17 18 19 20 21 22 23 24 25 26 27 28 29 30 31 32 33 34 35 36 37 38 39 40 41 42 43 44 45 46 47 48 49 50
000
ASUS44 KFWD 230210
RWRTX
NORTH TEXAS HOURLY WEATHER ROUNDUP
NATIONAL WEATHER SERVICE FORT WORTH TX
900 PM CDT WED OCT 22 2014

NOTE: "FAIR" INDICATES FEW OR NO CLOUDS BELOW 12,000 FEET WITH NO
SIGNIFICANT WEATHER AND/OR OBSTRUCTIONS TO VISIBILITY.

TXZ118-119-230300-
DALLAS/FORT WORTH METROPLEX

CITY           SKY/WX    TMP DP  RH WIND       PRES   REMARKS
DFW AIRPORT    CLOUDY    73  56  54 SE7       30.10R
DALLAS LOVE    CLOUDY    74  56  53 E6        30.10R
FTW MEACHAM    CLOUDY    74  57  55 E6        30.09S
DAL-EXECUTIVE  CLOUDY    72  56  57 E5        30.10R
FTW-ALLIANCE   CLOUDY    70  57  63 E5        30.09S
FTW-NAS-JRB    CLOUDY    79  57  46 E3        30.14R
FTW-SPINKS     CLOUDY    69  58  68 CALM      30.12R
ARLINGTON      CLOUDY    71  58  63 E3        30.10R
GRAND PRAIRIE  CLOUDY    72  59  62 CALM      30.11S
LANCASTER      CLOUDY    69  54  57 CALM      30.11S
$$

TXZ091>094-102>105-117-120-121-131>134-230300-
NORTH CENTRAL TEXAS

CITY           SKY/WX    TMP DP  RH WIND       PRES   REMARKS
SHRMAN/DENISON CLOUDY    69  60  72 E6        30.13S
GAINESVILLE    CLOUDY    69  58  68 SE6       30.13R
BOWIE          CLOUDY    69  61  74 CALM      30.11S
BRIDGEPORT     CLOUDY    71  61  70 SE3       30.12S
DECATUR        CLOUDY    71  57  61 SE5       30.11S
DENTON         CLOUDY    71  58  63 E6        30.10S
MCKINNEY       CLOUDY    67  58  72 NE3       30.12R
GREENVILLE     MOCLDY    66  54  63 CALM      30.13R
ROCKWALL       CLOUDY    69  55  60 E6        30.10R
TERRELL        CLOUDY    70  55  59 E7        30.11S
WAXAHACHIE     CLOUDY    69  57  66 CALM      30.12R
CLEBURNE       CLOUDY    72  59  64 E7        30.13R
GRANBURY       CLOUDY    73  60  61 E7        30.11S
$$

TXZ083>090-098>101-113>116-127>130-139>142-154-155-230300-
WESTERN NORTH TEXAS

CITY           SKY/WX    TMP DP  RH WIND       PRES   REMARKS
WICHITA FALLS  CLOUDY    68  61  78 CALM      30.10R
WF-KICKAPOO    CLOUDY    70  58  65 W6        30.11S
VERNON         MOCLDY    63  59  88 CALM      30.12R
ABILENE        PTCLDY    66  57  72 SE6       30.11S
ABILENE-DYESS  PTCLDY    65  59  78 E1        30.11S
BRECKENRIDGE   CLOUDY    70  62  76 CALM      30.11R
GRAHAM         CLOUDY    67  63  87 CALM      30.09S
MINERAL WELLS  LGT RAIN  71  59  65 SE5       30.09R
STEPHENVILLE   CLOUDY    71  57  61 SE6       30.14R
COMANCHE       CLOUDY    70  59  68 SE5       30.11S
COLEMAN        CLOUDY    67  61  81 CALM      30.12R
BRADY          PTCLDY    70  54  56 CALM      30.13R
$$

TXZ143>147-156>162-174-175-230300-
CENTRAL TEXAS

CITY           SKY/WX    TMP DP  RH WIND       PRES   REMARKS
WACO           CLOUDY    68  59  73 E3        30.10R
WACO-TSTC      CLEAR     68  57  68 CALM      30.11R
WACO-MCGREGOR  CLOUDY    70  54  56 CALM      30.12R
HILLSBORO      CLOUDY    71  55  55 E5        30.11R
CORSICANA      PTCLDY    68  57  68 E6        30.11S
MEXIA          PTCLDY    67  56  69 E5        30.09S
HEARNE         PTCLDY    68  58  70 CALM      30.10S
CAMERON        MOCLDY    70  60  70 CALM      30.09S
TEMPLE         CLOUDY    72  55  56 CALM      30.10R
KILLEEN        MOCLDY    73  59  60 E6        30.10R
KILLEEN-SKYLRK CLOUDY    72  57  60 E5        30.09S
FORT HOOD      CLOUDY    73  60  63 E3        30.10R
GATESVILLE     CLOUDY    72  61  68 SE3       30.12S
HAMILTON       CLOUDY    71  58  63 SE8       30.12S
LAMPASAS       CLOUDY    71  61  71 CALM      30.11R
$$

TXZ095>097-106>112-122>126-135>138-148>153-164>167-230300-
EAST TEXAS

CITY           SKY/WX    TMP DP  RH WIND       PRES   REMARKS
PARIS          CLEAR     63  48  59 E8        30.15R
SULPHUR SPRNGS CLEAR     64  54  68 E6        30.15R
MOUNT PLEASANT CLEAR     64  51  63 E6        30.15S
MINEOLA        CLEAR     61  55  82 CALM      30.14R
TYLER          CLEAR     68  54  60 E6        30.13R
LONGVIEW       CLEAR     60  54  80 E5        30.13R
MARSHALL       CLEAR     60  56  84 CALM      30.16R
ATHENS         PTCLDY    61  55  82 CALM      30.11R
PALESTINE      PTCLDY    63  59  88 CALM      30.12S
JACKSONVILLE   CLEAR     66  54  63 NE3       30.14S
HENDERSON      CLEAR     60  55  83 CALM      30.14S
NACOGDOCHES    CLEAR     57  52  82 CALM      30.13R
LUFKIN         CLEAR     64  57  78 CALM      30.11R
$$

SUPPLEMENTAL OBSERVATIONS (CENTRAL)

CITY           SKY/WX    TMP DP  RH WIND       PRES   REMARKS
CADDO GRASSLND   N/A     66  54  63 SE3         N/A
PAT MAYSE LAKE   N/A     66  54  63 E6          N/A
MCGREGOR         N/A     70  59  68 NE1         N/A
$$

SUPPLEMENTAL OBSERVATIONS (WEST)

CITY           SKY/WX    TMP DP  RH WIND       PRES   REMARKS
MILLERS CREEK    N/A     63  54  72 NE3         N/A
LBJ GRASSLAND    N/A     72  55  56 SE5         N/A
HAMBY            N/A     66  59  77 E1          N/A
IVIE RESERVOIR   N/A     66  54  63 N1          N/A
COLORADO BEND    N/A     72  57  60 SE3         N/A
$$

SUPPLEMENTAL OBSERVATIONS (EAST)

CITY           SKY/WX    TMP DP  RH WIND       PRES   REMARKS
CLARKSVILLE      N/A     64  52  63 E5          N/A
TEXARKANA        N/A     55  52  88 CALM        N/A
LINDEN           N/A     57  52  82 CALM        N/A
GILMER           N/A     59  55  88 CALM        N/A
HENDERSON        N/A     59  54  82 NE2         N/A
N SABINE NF      N/A     57  54  88 MISG        N/A
$$

SUPPLEMENTAL OBSERVATIONS ARE A COLLECTION OF AUTOMATED INSTRUMENTS
THAT ARE MAINTAINED BY A VARIETY OF FEDERAL AND STATE AGENCIES.
CERTAIN ELEMENTS...SUCH AS HUMIDITY VALUES AND SUSTAINED WIND
SPEEDS...MAY BE APPROXIMATED.




USA.gov is the U.S. government's official web portal to all federal, state and local government web resources and services.